[[{"header":{"parameterUnit":"m.s-1","parameterCategory":1,"la1":30.2991,"la2":30.254,"lo1":-89.0895,"lo2":-89.0444,"dy":0.0017,"dx":0.0017,"nx":28,"ny":28,"refTime":"2023-10-01T21:00:00:Z","depth":0,"parameterNumber":2,"parameterNumberName":"U-component_of_WINDS"},"data":[0,0,0,0,0,0,0,0,0,0,0,0,0,0,0,0,0,0,0,0,0,0,0,0,0,0,0,0,0,0,0,0,0,0,0,0,0,0,0,0,0,0,0,0,0,0,0,0,0,0,0,0,0,0,0,0,0,0,-5.2697,-5.2697,0,-5.2748,-5.2748,-5.2749,-5.2659,-5.2656,-5.2653,-5.265,-5.2703,-5.2707,-5.2711,0,0,0,0,0,0,0,0,0,0,0,0,0,-5.2523,-5.2527,-5.2697,-5.2697,-5.2698,-5.2748,-5.2748,-5.2749,-5.2659,-5.2656,-5.2652,-5.2648,-5.2701,-5.2706,-5.2712,0,0,0,0,0,0,0,0,0,0,0,0,0,-5.2589,-5.2528,-5.2697,-5.2659,-5.2656,-5.2748,-5.2748,-5.2749,-5.266,-5.2655,-5.2651,-5.2647,-5.27,-5.2706,-5.2712,-5.2843,0,0,-5.2732,-5.2734,0,0,0,0,0,0,0,0,-5.2585,-5.2595,-5.2664,-5.2662,-5.2659,-5.2692,-5.2706,-5.2781,-5.2661,-5.2659,-5.265,-5.2644,-5.2703,-5.2709,-5.2728,-5.2845,-5.2847,-5.2732,-5.2736,-5.2739,-5.2741,0,0,0,0,0,0,0,-5.2581,-5.2593,-5.2717,-5.2665,-5.2662,-5.264,-5.2645,-5.272,-5.2706,-5.2659,-5.2652,-5.2659,-5.2701,-5.2722,-5.2729,-5.2848,-5.2732,-5.2738,-5.2742,-5.2744,-5.3077,-5.3081,0,0,0,0,0,0,-5.2581,-5.2589,-5.2715,-5.2718,-5.261,-5.2647,-5.2652,-5.2686,-5.2705,-5.2703,-5.2663,-5.2655,-5.2714,-5.2722,-5.2731,-5.2886,-5.2739,-5.2745,-5.2748,-5.3072,-5.3078,-5.3083,0,0,0,0,0,0,-5.2577,-5.2593,-5.2713,-5.2652,-5.2666,-5.2655,-5.2694,-5.269,-5.2711,-5.2708,-5.2705,-5.2688,-5.2711,-5.2722,-5.2816,-5.2887,-5.2748,-5.2753,-5.3066,-5.3074,-5.308,-5.3197,0,0,0,0,0,0,-5.2573,-5.2592,-5.2641,-5.2654,-5.267,-5.2798,-5.2698,-5.2694,-5.2722,-5.2712,-5.2731,-5.2729,-5.2708,-5.2807,-5.2822,-5.2893,-5.2758,-5.3059,-5.3069,-5.3078,-5.3187,-5.3208,-5.3226,0,0,0,0,0,-5.2567,-5.2672,-5.2644,-5.266,-5.273,-5.2802,-5.2811,-5.2783,-5.2728,-5.2778,-5.2776,-5.2729,-5.2876,-5.2817,-5.2834,-5.2907,-5.3055,-5.3066,-5.3077,-5.3179,-5.3204,-5.3225,0,0,0,0,0,0,-5.2667,-5.2673,-5.2642,-5.2754,-5.2778,-5.2786,-5.2848,-5.2811,-5.2851,-5.284,-5.2805,-5.281,-5.2912,-5.2918,-5.2853,-5.3036,-5.2956,-5.2971,-5.3028,-5.3052,-5.3071,-5.3067,-5.2764,0,0,0,0,0,-5.2702,-5.2759,-5.2761,-5.286,-5.2873,-5.2859,-5.2889,-5.2866,-5.289,-5.29,-5.2904,-5.293,-5.2982,-5.3017,-5.3064,-5.3187,-5.3191,-5.3246,-5.3266,-5.3282,-5.3296,-5.3363,-5.3389,-5.312,-5.312,-5.312,0,0,-5.2775,-5.2785,-5.2824,-5.288,-5.2896,-5.2957,-5.2868,-5.2936,-5.2981,-5.291,-5.3,-5.3005,-5.303,-5.314,-5.3189,-5.3149,-5.337,-5.3296,-5.3309,-5.3314,-5.3378,-5.3403,-5.3426,-5.3128,-5.3127,-5.3125,0,0,-5.294,-5.2953,-5.3037,-5.3056,-5.3081,-5.3071,-5.3092,-5.3106,-5.3107,-5.3196,-5.3145,-5.3198,-5.3288,-5.3309,-5.3332,-5.3507,-5.3465,-5.3523,-5.3624,-5.3691,-5.3712,-5.3731,-5.3795,-5.3818,-5.3537,-5.3537,-5.3537,0,-5.3028,-5.3117,-5.3085,-5.3158,-5.3185,-5.3123,-5.321,-5.3229,-5.3269,-5.3289,-5.3244,-5.3357,-5.337,-5.3485,-5.3528,-5.3548,-5.3571,-5.3521,-5.3712,-5.373,-5.3747,-5.3808,-5.3832,-5.3544,-5.3543,-5.3542,-5.3542,0,-5.3225,-5.3288,-5.3353,-5.3394,-5.3428,-5.3507,-5.3488,-5.3527,-5.3501,-5.3497,-5.359,-5.3603,-5.3654,-5.3679,-5.3654,-5.3792,-5.3766,-5.3717,-5.3637,-5.378,-5.3837,-5.386,-5.3554,-5.3551,-5.3549,-5.3548,0,0,-5.3454,-5.3477,-5.3502,-5.3521,-5.3545,-5.3593,-5.367,-5.3719,-5.3754,-5.3784,-5.3849,-5.3927,-5.3882,-5.3908,-5.3885,-5.3943,-5.4084,-5.3887,-5.3887,-5.3925,-5.4239,-5.4277,-5.4304,-5.4056,-5.406,-5.4064,-5.4237,0,-5.3619,-5.3751,-5.3726,-5.3855,-5.3914,-5.3857,-5.3924,-5.3947,-5.3945,-5.3995,-5.3992,-5.4049,-5.3984,-5.4,-5.4055,-5.4055,-5.4147,-5.4042,-5.4118,-5.4121,-5.4114,-5.4334,-5.4374,-5.4537,-5.4259,-5.4263,-5.4265,0,-5.3829,-5.3868,-5.4003,-5.402,-5.4044,-5.4105,-5.4149,-5.4197,-5.4223,-5.4217,-5.4247,-5.4214,-5.4291,-5.421,-5.4317,-5.4247,-5.4276,-5.4281,-5.4286,-5.4294,-5.4203,-5.4349,-5.4587,-5.4613,-5.43,-5.4297,-5.4294,0,-5.3985,-5.4071,-5.4164,-5.4181,-5.4203,-5.4247,-5.4258,-5.4279,-5.4311,-5.435,-5.4371,-5.4418,-5.4444,-5.4482,-5.4464,-5.4405,-5.4576,-5.4491,-5.4575,-5.4575,-5.4614,-5.4612,-5.4863,-5.463,-5.463,-5.4629,-5.4629,0,-5.4173,-5.4259,-5.4234,-5.4292,-5.4387,-5.4357,-5.4452,-5.4456,-5.4476,-5.4534,-5.4487,-5.4542,-5.4513,-5.4567,-5.4553,-5.4646,-5.4657,-5.4656,-5.4652,-5.4661,-5.4662,-5.4681,-5.467,-5.4636,-5.4634,-5.4633,-5.4632,0,-5.4364,-5.4351,-5.4448,-5.4461,-5.4467,-5.4536,-5.4548,-5.4602,-5.4596,-5.467,-5.4686,-5.4678,-5.4739,-5.4724,-5.479,-5.4781,-5.4898,-5.4878,-5.489,-5.4886,-5.497,-5.4964,-5.5244,-5.528,-5.5023,-5.5025,-5.5027,0,-5.4485,-5.455,-5.4571,-5.4606,-5.4621,-5.4679,-5.4711,-5.4685,-5.4721,-5.4756,-5.4807,-5.4864,-5.4908,-5.5008,-5.5009,-5.506,-5.5043,-5.5137,-5.505,-5.5059,-5.5047,-5.5044,-5.5051,-5.5155,-5.5158,-5.5161,-5.5162,0,-5.4703,-5.4694,-5.4743,-5.4791,-5.4831,-5.4867,-5.4899,-5.4931,-5.4907,-5.495,-5.5012,-5.5047,-5.5115,-5.5174,-5.5221,-5.5233,-5.5195,-5.519,-5.5212,-5.5224,-5.5228,-5.5229,-5.4939,-5.5184,-5.5182,-5.518,-5.5179,-5.5178,-5.4864,-5.492,-5.4944,-5.5001,-5.5022,-5.5053,-5.5105,-5.5107,-5.5158,-5.5212,-5.5193,-5.5265,-5.529,-5.535,-5.5368,-5.5425,-5.5389,-5.5421,-5.5429,-5.5438,-5.545,-5.5218,-5.5433,-5.5433,-5.5432,-5.5431,-5.5431,0,-5.5082,-5.5095,-5.5147,-5.5193,-5.5239,-5.5198,-5.5232,-5.5273,-5.5336,-5.5363,-5.5408,-5.548,-5.5537,-5.5542,-5.5596,-5.564,-5.5624,-5.5655,-5.5653,-5.5657,-5.5477,-5.5454,-5.5668,-5.5668,-5.5667,-5.5667,-5.5667,-5.5667,-5.52,-5.5293,-5.5287,-5.5391,-5.5403,-5.5473,-5.5496,-5.5525,-5.5547,-5.563,-5.5677,-5.568,-5.5699,-5.5754,-5.5804,-5.5804,-5.5827,-5.5866,-5.586,-5.5692,-5.5669,-5.5647,-5.5624,-5.587,-5.5871,-5.6034,-5.6036,-5.6037]},{"header":{"parameterUnit":"m.s-1","parameterCategory":1,"la1":30.2991,"la2":30.254,"lo1":-89.0895,"lo2":-89.0444,"dy":0.0017,"dx":0.0017,"nx":28,"ny":28,"refTime":"2023-10-01T21:00:00:Z","depth":0,"parameterNumber":3,"parameterNumberName":"V-component_of_WINDS"},"data":[0,0,0,0,0,0,0,0,0,0,0,0,0,0,0,0,0,0,0,0,0,0,0,0,0,0,0,0,0,0,0,0,0,0,0,0,0,0,0,0,0,0,0,0,0,0,0,0,0,0,0,0,0,0,0,0,0,0,-2.8098,-2.8098,0,-2.8081,-2.8081,-2.8081,-2.8027,-2.8026,-2.8025,-2.8024,-2.8007,-2.8007,-2.8008,0,0,0,0,0,0,0,0,0,0,0,0,0,-2.8085,-2.8086,-2.8098,-2.8098,-2.8098,-2.8081,-2.8081,-2.8081,-2.8027,-2.8026,-2.8024,-2.8023,-2.8007,-2.8007,-2.8008,0,0,0,0,0,0,0,0,0,0,0,0,0,-2.8082,-2.8086,-2.8098,-2.8069,-2.8066,-2.8081,-2.8081,-2.808,-2.8028,-2.8026,-2.8024,-2.8022,-2.8006,-2.8007,-2.8008,-2.805,0,0,-2.8011,-2.8012,0,0,0,0,0,0,0,0,-2.8082,-2.8082,-2.8074,-2.8071,-2.8068,-2.8054,-2.807,-2.807,-2.8028,-2.8042,-2.8024,-2.8022,-2.8024,-2.8024,-2.8024,-2.8049,-2.8048,-2.8011,-2.8012,-2.8012,-2.8013,0,0,0,0,0,0,0,-2.8082,-2.8083,-2.8091,-2.8074,-2.807,-2.8057,-2.8055,-2.807,-2.8044,-2.8041,-2.8037,-2.8036,-2.8022,-2.8023,-2.8023,-2.8048,-2.8011,-2.8012,-2.8013,-2.8013,-2.8105,-2.8107,0,0,0,0,0,0,-2.8087,-2.8083,-2.8092,-2.8091,-2.8071,-2.8059,-2.8056,-2.8061,-2.8043,-2.8039,-2.8037,-2.8033,-2.8023,-2.8022,-2.8023,-2.807,-2.8012,-2.8013,-2.8014,-2.8103,-2.8106,-2.8108,0,0,0,0,0,0,-2.8087,-2.8088,-2.8093,-2.8086,-2.8086,-2.8061,-2.8067,-2.8061,-2.8062,-2.804,-2.8035,-2.8043,-2.8021,-2.8021,-2.8043,-2.8069,-2.8014,-2.8015,-2.8101,-2.8104,-2.8107,-2.8165,0,0,0,0,0,0,-2.8086,-2.8088,-2.8104,-2.8087,-2.8086,-2.8114,-2.8068,-2.8062,-2.8064,-2.8059,-2.8045,-2.8041,-2.802,-2.8042,-2.8044,-2.8069,-2.8015,-2.8099,-2.8103,-2.8106,-2.8161,-2.8169,-2.8177,0,0,0,0,0,-2.8086,-2.8121,-2.8105,-2.8106,-2.8105,-2.8115,-2.8115,-2.809,-2.8066,-2.8082,-2.8067,-2.8041,-2.8065,-2.8045,-2.8047,-2.8072,-2.8097,-2.8101,-2.8106,-2.8157,-2.8168,-2.8177,0,0,0,0,0,0,-2.8143,-2.8119,-2.81,-2.8131,-2.8126,-2.8106,-2.8125,-2.8102,-2.8104,-2.8099,-2.8068,-2.8065,-2.8092,-2.8084,-2.8061,-2.8111,-2.8077,-2.8082,-2.8115,-2.8125,-2.8133,-2.8135,-2.8016,0,0,0,0,0,-2.8159,-2.8169,-2.8147,-2.8177,-2.8175,-2.8151,-2.8154,-2.8135,-2.8129,-2.8126,-2.8113,-2.8108,-2.8114,-2.8119,-2.8124,-2.8159,-2.8155,-2.8177,-2.8185,-2.8192,-2.8197,-2.8214,-2.8224,-2.8121,-2.8121,-2.8121,0,0,-2.8192,-2.818,-2.8189,-2.8188,-2.8181,-2.8192,-2.8149,-2.8163,-2.8171,-2.8128,-2.8148,-2.8139,-2.813,-2.8159,-2.8171,-2.8154,-2.8224,-2.8197,-2.8203,-2.8204,-2.822,-2.8229,-2.8238,-2.8124,-2.8124,-2.8123,0,0,-2.8259,-2.8251,-2.8274,-2.8268,-2.8259,-2.8242,-2.8248,-2.8232,-2.8224,-2.8243,-2.8211,-2.822,-2.8231,-2.8227,-2.8226,-2.829,-2.8265,-2.8292,-2.8334,-2.8352,-2.836,-2.8367,-2.839,-2.8398,-2.8296,-2.8297,-2.8297,0,-2.8302,-2.8318,-2.8289,-2.8305,-2.8305,-2.8266,-2.8289,-2.8285,-2.8278,-2.8279,-2.8259,-2.8272,-2.8264,-2.8291,-2.8306,-2.8307,-2.8312,-2.8294,-2.8361,-2.8368,-2.8374,-2.8395,-2.8404,-2.83,-2.8299,-2.8299,-2.8299,0,-2.8371,-2.8382,-2.8402,-2.8395,-2.8397,-2.8417,-2.8391,-2.8397,-2.8378,-2.8363,-2.8383,-2.8371,-2.8373,-2.8377,-2.8359,-2.8402,-2.8391,-2.8367,-2.8332,-2.8388,-2.8407,-2.8415,-2.8305,-2.8303,-2.8302,-2.8302,0,0,-2.8474,-2.845,-2.8458,-2.8454,-2.844,-2.8448,-2.8466,-2.8466,-2.8472,-2.8468,-2.8482,-2.8492,-2.8469,-2.8468,-2.8448,-2.8463,-2.8514,-2.8437,-2.8436,-2.8452,-2.856,-2.8579,-2.8589,-2.8498,-2.8499,-2.85,-2.8561,0,-2.8537,-2.8566,-2.854,-2.8573,-2.8583,-2.8545,-2.856,-2.8553,-2.854,-2.8546,-2.8531,-2.8539,-2.8508,-2.8507,-2.852,-2.8505,-2.8536,-2.85,-2.851,-2.8511,-2.8514,-2.8599,-2.8619,-2.8678,-2.8568,-2.857,-2.8571,0,-2.8615,-2.8614,-2.8648,-2.8631,-2.8634,-2.8648,-2.8646,-2.8653,-2.8644,-2.8633,-2.8631,-2.8607,-2.8622,-2.8588,-2.8609,-2.8585,-2.8587,-2.8581,-2.8582,-2.8583,-2.8545,-2.8603,-2.8696,-2.8705,-2.8582,-2.8581,-2.8581,0,-2.8688,-2.8694,-2.8715,-2.8713,-2.8694,-2.8704,-2.8697,-2.8686,-2.8688,-2.8686,-2.8687,-2.8687,-2.8688,-2.8688,-2.8665,-2.8642,-2.8689,-2.8652,-2.868,-2.8681,-2.8693,-2.8692,-2.8788,-2.8693,-2.8693,-2.8693,-2.8693,0,-2.8761,-2.8784,-2.8747,-2.8761,-2.8784,-2.8754,-2.8778,-2.8767,-2.8757,-2.8767,-2.8735,-2.8745,-2.8713,-2.8719,-2.8701,-2.8721,-2.8721,-2.8713,-2.8708,-2.8716,-2.8717,-2.8718,-2.8713,-2.8695,-2.8695,-2.8694,-2.8694,0,-2.8847,-2.8823,-2.8844,-2.8823,-2.8818,-2.8837,-2.8819,-2.883,-2.8814,-2.8827,-2.8828,-2.8803,-2.8809,-2.8785,-2.8788,-2.8775,-2.8805,-2.8793,-2.8808,-2.8805,-2.8834,-2.8832,-2.8934,-2.8946,-2.8844,-2.8845,-2.8845,0,-2.8896,-2.8912,-2.8893,-2.8897,-2.8891,-2.8898,-2.8899,-2.887,-2.8872,-2.8863,-2.8875,-2.8878,-2.8879,-2.8891,-2.8873,-2.8874,-2.8862,-2.8898,-2.8862,-2.887,-2.8863,-2.8863,-2.8864,-2.8906,-2.8907,-2.8908,-2.8909,0,-2.8985,-2.8972,-2.8975,-2.8974,-2.8976,-2.8974,-2.897,-2.8975,-2.8943,-2.8948,-2.8953,-2.8954,-2.8956,-2.8959,-2.8957,-2.8949,-2.8924,-2.892,-2.8926,-2.8935,-2.8944,-2.894,-2.8829,-2.8918,-2.8917,-2.8916,-2.8916,-2.8915,-2.9054,-2.9066,-2.9054,-2.9058,-2.9052,-2.9048,-2.9057,-2.9042,-2.9046,-2.9044,-2.9027,-2.9036,-2.9025,-2.9019,-2.9013,-2.902,-2.9003,-2.9013,-2.9015,-2.9019,-2.9024,-2.8942,-2.9019,-2.9019,-2.9019,-2.9019,-2.9018,0,-2.9142,-2.9132,-2.9136,-2.913,-2.9133,-2.9108,-2.9102,-2.9106,-2.9114,-2.9106,-2.9108,-2.9114,-2.9117,-2.9099,-2.9099,-2.9108,-2.9096,-2.9109,-2.9109,-2.9107,-2.9038,-2.9033,-2.9119,-2.9119,-2.9118,-2.9118,-2.9118,-2.9118,-2.9188,-2.9207,-2.9193,-2.9209,-2.9198,-2.9206,-2.9205,-2.9201,-2.9195,-2.9203,-2.9205,-2.9192,-2.918,-2.918,-2.9181,-2.9176,-2.9178,-2.9195,-2.9185,-2.9122,-2.9112,-2.9103,-2.9097,-2.9195,-2.9195,-2.9253,-2.9254,-2.9254]}]]